Starlink 11142

operational
NORAD ID: 59957 Int'l Des: 2024-107 Owner: SPXS Country: US Constellation: starlink
LEOCIRCULAR

Starlink 11142について

説明を読み込み中...

リアルタイム位置

3D地球を読み込み中...

次回通過

高度履歴

Altitude vs Time

uPlot chart will show altitude changes over time

軌道要素

1 59957U 24107N 25354.18863381 .00000220 00000-0 66826-5 0 9993
2 59957 53.1602 282.8627 0001611 67.9148 292.2041 15.69712105 89670
Epoch: Dec 20, 2025 • Age: 9 hours

現在のステータス

高度 360.1 km
速度 7.70 km/s
衛星直下点 26.82°N, 6.07°E
打ち上げ日 Jun 5, 2024
運用期間 1.5 years
タイプ internet

技術仕様

分類 Payload
質量 960.00 kg
乾燥質量 910.00 kg
総質量 960.00 kg
長さ 0.30 m
直径 4.10 m
スパン 29.00 m
形状 Box + pan
製造者 SPXS
バスタイプ Starlink V2MD
フェーズステータス In Orbit
所有者/国 SPXS/US

大規模コンステレーション

Loading constellations...